Starlink 32112

operational
NORAD ID: 60136 Int'l Des: 2024-120 Owner: SPXS Country: US Constellation: starlink
LEOCIRCULAR

Über Starlink 32112

Beschreibung wird geladen...

Live-Position

3D-Globus wird geladen...

Nächste Überflüge

Höhenverlauf

Altitude vs Time

uPlot chart will show altitude changes over time

Zweizeiliger Elementsatz

1 60136U 24120B 25350.29130761 .00007387 00000-0 26092-3 0 9996
2 60136 53.1628 347.5815 0001096 100.3881 259.7244 15.30243829 83688
Epoch: 16. Dez. 2025 • Age: 17 hours

Aktueller Status

Höhe 493.9 km
Geschwindigkeit 7.62 km/s
Subsatellitenpunkt -52.23°S, 155.54°E
Startdatum 27. Juni 2024
Alter 1.4 years
Typ internet

Technische Details

Klassifizierung Payload
Masse 730.00 kg
Trockenmasse 700.00 kg
Gesamtmasse 730.00 kg
Länge 0.30 m
Durchmesser 4.10 m
Spannweite 29.00 m
Form Box + pan
Hersteller SPXS
Bus-Typ Starlink V2M
Phasenstatus In Orbit
Besitzer/Staat SPXS/US

Große Konstellationen

Loading constellations...